Theta_e
294 294 294 295 295 295 295 296 296 297 297 298 298 299 299 300 301 302 302 303 303 304 304 304 305 305 305 305 305 305 304 305 307 309 312 311 311 315 316 315 313 312 311 310 307 307 308 308 310 312 313 314 317 319 317 320 322 322 325 324 323 323 321 321 321 322 323 324 326 329 329 329 330 328 328 328 328 329 328 327 327 327 328 330 332 333 331 327
294 294 294 294 294 294 295 295 295 296 297 297 298 298 299 299 299 300 301 302 303 303 303 304 304 305 305 305 305 305 304 304 305 307 310 310 312 315 315 313 312 313 313 310 308 309 311 310 311 313 313 313 316 318 318 320 322 323 325 323 322 322 320 321 321 322 322 323 326 328 329 330 329 329 328 328 328 328 329 328 327 328 330 330 328 329 329 327
294 294 294 294 294 294 294 294 295 295 296 296 297 298 298 299 299 300 300 301 302 303 303 303 303 304 305 305 305 305 305 306 306 307 310 313 315 315 313 313 313 313 314 313 310 308 310 312 312 312 311 311 314 318 319 320 321 321 323 322 322 322 321 320 320 321 320 322 325 326 327 329 329 329 328 328 328 328 328 329 328 329 331 330 327 326 326 326
295 295 295 294 294 294 294 294 294 294 295 295 296 296 297 298 298 300 300 301 302 303 304 304 303 304 305 306 305 306 306 307 309 312 314 315 315 314 313 312 313 313 314 316 312 306 308 311 312 311 310 312 314 317 319 320 321 320 321 321 321 321 321 321 320 321 322 324 324 324 325 328 329 328 328 328 329 329 328 328 328 329 330 329 328 325 325 325
296 296 295 295 295 294 294 294 294 294 294 295 295 295 296 297 298 299 300 301 302 302 303 304 304 304 305 306 305 307 308 306 313 318 317 316 314 313 313 313 313 313 314 316 315 311 310 311 313 313 312 312 314 316 318 320 320 320 320 320 320 320 320 321 322 323 324 324 324 323 322 324 327 327 328 328 329 329 328 328 329 328 329 329 329 326 324 325
295 296 296 296 295 295 295 294 294 295 295 295 295 295 295 295 296 298 299 301 302 302 303 304 305 304 304 305 305 307 309 307 314 319 316 315 315 314 315 314 314 313 313 316 318 316 313 313 313 314 313 311 312 314 315 319 320 319 319 319 319 319 319 320 323 324 323 322 322 321 320 321 323 324 326 328 328 329 329 329 329 329 330 329 329 328 325 324
298 297 296 296 296 296 295 295 294 295 295 295 295 295 295 295 295 296 298 300 301 302 302 303 304 305 305 305 306 307 310 309 311 314 313 314 314 314 315 315 315 313 313 316 318 317 316 315 314 314 313 312 312 312 312 316 319 318 318 318 319 319 320 321 323 324 323 322 321 320 321 323 324 324 326 327 327 327 328 329 329 330 332 330 330 329 326 325
301 300 298 297 297 297 296 295 295 294 295 295 295 295 295 295 295 295 296 297 300 301 302 303 304 305 305 305 307 308 310 310 309 309 309 311 313 315 315 316 315 313 314 317 317 317 318 316 315 314 313 311 311 311 312 314 316 316 317 319 320 320 319 321 323 323 323 323 322 321 322 324 325 325 325 326 326 326 327 328 328 329 332 333 331 330 327 325
300 301 300 298 298 297 297 296 295 295 294 295 295 295 295 295 295 296 296 296 297 299 301 302 303 304 305 305 307 308 309 308 309 310 310 311 313 314 315 316 316 313 313 317 317 316 317 316 314 315 315 315 315 315 314 313 314 316 317 320 320 319 317 319 323 323 323 323 322 321 322 323 323 323 323 323 325 326 327 327 328 328 329 332 333 331 328 325
300 301 301 300 299 298 297 297 296 295 295 294 294 295 295 295 295 295 296 296 296 297 299 300 302 303 304 305 307 308 308 307 309 311 312 312 313 314 314 316 315 313 313 315 317 317 317 317 316 317 317 317 317 317 317 315 314 316 317 318 319 319 317 317 320 322 322 322 322 321 322 322 321 321 322 322 324 326 327 327 327 328 327 329 331 332 330 327
300 300 300 300 299 298 298 298 297 296 295 295 295 295 295 294 295 295 296 296 296 296 297 298 301 302 304 305 307 308 307 308 310 311 312 312 313 314 315 315 314 313 315 317 318 318 317 317 316 317 317 316 314 314 316 315 314 315 317 317 318 319 319 318 319 321 321 322 322 321 321 322 321 321 321 321 323 325 326 326 326 328 328 328 328 330 331 330
299 299 299 299 299 298 298 298 297 297 296 296 295 295 294 294 295 295 295 295 296 296 297 297 299 301 303 304 305 306 307 307 309 310 311 312 312 313 314 315 314 314 317 317 317 318 318 318 316 315 316 316 314 313 315 317 315 316 317 316 316 317 317 318 318 320 321 321 321 322 323 322 322 321 321 321 322 324 325 325 326 326 328 328 328 329 329 330
299 299 299 298 298 298 298 298 297 297 297 296 295 295 294 294 295 295 295 296 296 297 297 297 299 300 302 304 304 304 306 307 308 309 310 310 311 311 312 314 315 315 316 317 317 317 318 317 315 315 315 316 317 317 318 319 317 318 317 317 317 316 315 315 316 318 319 320 320 322 321 320 321 321 321 321 323 323 324 324 325 325 327 328 328 328 329 329
299 299 299 299 298 298 297 297 297 298 297 296 296 295 294 295 295 295 295 296 296 297 297 297 299 300 303 304 302 302 304 306 307 308 309 310 309 309 310 312 314 315 316 316 316 316 315 313 313 315 315 315 318 318 318 319 319 318 318 317 317 315 313 313 314 316 318 319 319 321 320 317 318 321 321 321 322 323 323 324 325 325 326 327 327 328 328 329
298 299 299 299 298 298 298 297 298 298 297 297 296 295 295 295 295 295 295 296 296 296 297 298 299 301 303 304 302 303 304 305 306 306 307 309 310 310 310 311 313 314 315 316 316 316 314 311 313 316 315 315 316 316 317 317 318 319 318 319 318 316 314 314 315 317 318 319 318 321 321 318 317 319 320 321 322 323 323 323 324 325 326 327 327 327 328 328
297 298 299 299 299 299 298 297 298 298 297 297 296 296 295 294 295 296 296 297 297 297 298 298 299 302 304 304 303 305 305 306 308 307 306 307 309 310 310 310 312 314 315 316 316 315 313 312 315 316 315 316 315 315 316 316 317 318 318 318 318 318 317 315 317 319 319 319 318 321 321 318 317 317 317 319 321 322 323 322 322 323 324 325 326 327 327 328
298 299 299 299 300 300 299 297 298 298 297 297 296 296 295 295 297 298 299 300 300 300 299 300 300 302 303 302 302 304 305 306 308 309 309 308 308 309 309 310 311 313 315 316 316 316 316 316 316 315 315 316 316 316 316 315 315 316 318 318 316 317 318 317 320 321 319 319 320 321 320 318 317 318 318 319 320 322 322 322 322 322 322 323 324 325 326 327
299 299 299 299 300 300 299 298 298 297 297 297 297 297 296 298 299 299 301 302 302 302 302 302 303 302 302 302 303 304 305 307 308 308 309 310 310 310 309 309 310 312 314 315 317 317 317 317 316 315 315 315 315 317 316 314 313 314 317 319 318 316 316 317 321 322 320 320 320 320 321 320 319 318 319 320 321 322 322 322 322 322 322 322 322 322 322 324
299 299 300 300 300 300 299 298 298 297 297 297 297 298 298 299 299 300 303 302 302 302 302 303 303 302 302 303 303 302 303 305 306 307 308 309 310 310 310 309 310 312 314 315 316 317 317 317 316 316 316 315 314 316 316 315 313 314 315 317 318 317 315 314 320 321 320 321 320 319 320 320 320 320 320 320 321 321 322 322 322 322 322 321 322 321 320 321
299 299 300 300 300 300 299 299 298 298 297 297 298 300 300 300 300 301 302 301 300 301 301 301 302 302 302 301 301 300 302 303 303 304 306 308 309 310 311 310 310 312 314 315 315 316 318 318 317 316 315 315 314 314 315 315 314 314 315 315 316 318 317 315 318 320 319 321 320 319 319 318 320 321 320 320 320 320 320 320 320 320 320 320 320 321 321 321
299 299 300 300 300 300 299 299 299 299 297 297 300 300 300 300 300 300 300 300 299 299 299 299 300 301 301 300 299 299 301 303 302 302 303 305 307 309 311 310 311 312 313 313 314 315 317 318 317 316 315 314 314 314 314 314 314 314 315 316 316 317 319 317 317 318 317 318 318 318 318 318 318 318 318 318 319 319 319 319 319 319 319 319 320 321 321 322
299 299 300 300 300 300 300 299 299 298 298 299 300 300 300 300 300 300 300 300 300 299 298 298 299 300 299 299 299 300 302 303 302 301 302 304 306 309 311 311 311 311 311 312 313 314 316 317 316 315 315 314 314 314 314 314 314 314 315 316 316 315 317 316 317 317 316 316 316 316 316 315 316 316 316 316 317 318 318 319 319 319 319 319 319 320 321 321
299 299 300 300 300 300 300 300 299 299 300 300 300 300 300 299 299 299 299 299 300 298 298 298 299 300 300 300 301 302 304 304 303 301 302 305 307 309 310 310 310 310 310 311 312 313 314 314 315 315 315 314 314 314 315 315 315 316 316 316 315 315 314 313 315 317 316 316 315 315 315 314 314 315 316 316 315 316 317 318 318 319 319 319 320 320 320 320
298 299 300 301 300 300 300 299 299 300 300 299 300 300 300 298 298 299 299 300 299 298 299 300 301 301 302 303 302 303 304 305 304 302 302 305 307 308 308 309 310 311 311 311 312 312 312 312 313 315 315 315 315 314 315 315 315 316 317 316 315 315 314 312 313 315 313 314 315 314 313 312 312 313 313 314 315 315 315 316 316 317 318 319 320 320 319 318
298 299 300 300 300 300 300 299 300 301 300 300 300 300 299 298 298 298 299 299 299 300 301 302 302 302 303 303 303 303 304 304 304 304 303 304 307 308 309 309 310 310 311 311 312 312 312 311 312 313 315 316 316 315 315 315 315 315 316 316 316 315 315 313 314 314 312 313 314 314 312 311 311 311 311 311 312 313 313 314 314 315 317 319 320 320 318 317
297 299 300 300 300 300 300 300 301 300 300 300 300 299 298 298 298 298 299 299 299 301 302 304 303 303 303 304 303 303 303 303 304 303 304 304 306 308 309 309 309 310 310 311 312 312 312 311 311 312 313 315 316 315 315 316 315 315 315 316 316 316 316 315 314 314 314 313 312 313 313 311 311 311 311 311 311 311 312 313 313 313 315 318 319 319 318 317
297 298 299 300 300 300 300 301 300 300 301 301 300 299 298 297 297 299 300 299 300 301 302 304 304 303 304 304 303 303 303 303 303 303 304 304 305 307 308 308 309 309 310 311 312 312 312 312 313 312 313 315 316 315 315 315 316 315 316 316 317 316 316 315 315 315 314 313 312 313 313 312 311 310 311 311 310 310 311 313 313 312 313 316 317 317 317 316
296 298 299 300 300 300 300 300 300 300 301 301 300 298 297 297 297 300 300 298 299 300 302 304 304 303 303 304 304 303 303 303 303 303 304 304 305 306 308 308 308 308 309 310 311 312 311 313 313 313 313 314 314 315 316 316 316 315 316 317 318 317 317 317 317 315 313 313 312 312 312 311 309 309 310 309 309 309 309 311 315 313 312 314 315 315 315 314
296 297 298 299 300 300 301 300 300 301 301 301 300 298 297 297 299 300 299 298 299 300 302 304 304 303 303 304 304 305 304 303 303 303 302 303 305 306 307 308 308 308 308 310 310 310 310 312 312 313 314 314 313 314 315 316 316 315 316 317 318 318 317 317 317 316 315 314 312 311 311 310 309 309 310 309 308 309 308 310 315 315 313 313 314 314 314 313
296 297 297 298 299 300 301 301 301 301 301 300 299 297 297 298 300 300 298 298 298 299 302 303 303 304 304 303 303 305 304 303 303 302 300 303 305 305 306 307 307 308 308 308 309 309 310 310 311 312 313 313 313 314 315 315 315 316 318 317 318 318 317 316 317 316 315 314 312 311 310 310 309 310 310 310 309 309 309 309 312 314 313 314 314 313 312 311
297 297 297 297 298 300 300 301 301 301 301 300 298 298 299 299 300 298 298 299 299 300 302 302 301 302 303 302 302 303 303 303 304 302 301 303 304 305 306 306 307 307 307 307 308 309 309 310 310 312 312 312 313 314 314 315 315 317 318 317 317 318 317 317 317 317 316 314 312 312 311 311 310 310 310 311 311 310 310 309 310 312 312 312 313 312 311 310
297 296 296 297 298 299 300 301 301 301 300 300 299 299 299 299 299 298 299 299 300 301 301 300 300 300 301 301 301 303 303 303 304 302 302 303 304 305 306 306 306 306 306 307 307 308 309 309 310 311 313 313 313 314 315 316 317 317 317 316 316 317 318 318 317 317 316 314 312 312 313 313 311 310 310 311 311 311 311 311 311 311 312 312 313 312 311 311
296 296 295 296 297 298 299 301 301 301 300 300 299 299 299 299 299 299 299 299 299 300 300 300 300 301 301 301 302 303 303 302 303 303 303 304 304 305 305 305 306 306 306 306 307 308 308 309 310 311 313 313 313 314 315 316 316 316 316 316 315 316 317 317 316 316 315 314 313 312 314 315 312 311 311 310 310 311 311 312 312 311 312 313 313 313 312 312
296 295 295 296 297 298 300 300 300 301 300 300 300 299 299 299 299 299 299 299 299 299 300 300 301 300 301 301 302 304 303 303 303 303 303 304 305 305 305 305 305 305 305 306 307 308 308 308 310 311 312 313 313 313 313 315 315 315 316 315 315 315 315 315 315 315 315 315 315 313 314 315 312 313 316 313 311 311 310 311 312 311 311 312 312 312 312 312
295 295 296 296 298 299 301 300 300 301 300 300 299 300 300 299 299 299 299 299 299 300 300 301 300 300 300 301 303 303 302 302 303 303 303 304 304 304 304 305 306 305 305 306 307 307 307 307 309 311 312 312 313 312 312 315 315 314 315 315 315 314 314 314 314 315 315 316 316 314 315 315 312 313 317 316 314 312 310 311 310 311 311 310 311 310 311 312
294 295 296 297 299 300 301 301 300 301 300 300 300 300 300 299 299 299 299 300 300 300 300 300 299 300 300 300 301 302 302 302 303 303 303 304 304 304 304 305 305 305 305 306 306 307 307 307 308 310 312 312 313 312 311 313 315 315 315 315 315 314 314 315 315 314 314 315 315 314 315 316 313 314 314 315 316 315 314 312 310 311 311 310 310 311 312 313
295 296 296 297 300 301 300 300 300 301 300 300 300 301 300 300 300 299 299 300 300 300 299 299 299 299 299 299 299 301 302 301 302 302 301 302 302 304 305 305 305 305 305 305 306 306 306 307 307 308 310 311 311 312 312 312 313 315 315 315 315 314 313 314 315 316 315 314 314 312 314 315 315 315 314 313 315 315 316 315 312 310 310 310 310 311 312 313
296 297 297 298 300 300 299 299 300 301 300 300 301 301 300 301 300 299 300 300 300 300 299 299 299 298 298 299 299 300 300 300 300 300 300 300 302 304 305 305 305 305 304 304 305 305 304 305 307 306 308 309 310 311 313 313 312 313 314 315 316 315 314 314 315 316 316 315 314 313 312 312 314 314 313 313 313 313 315 315 314 312 311 310 311 312 313 312
296 297 298 299 300 299 298 299 299 300 300 300 301 301 300 301 300 300 300 300 300 300 299 299 298 298 298 298 299 299 300 300 300 300 300 300 301 302 303 304 305 304 303 303 305 304 301 302 305 307 308 309 310 310 311 313 313 312 312 314 316 316 315 315 315 315 316 315 314 315 313 312 313 312 312 313 312 312 314 314 314 313 312 312 313 313 313 312
296 297 298 299 299 298 297 298 299 300 300 300 300 300 300 301 300 300 300 299 299 299 299 299 299 299 299 299 299 299 299 299 300 300 300 300 300 301 302 304 304 304 304 304 305 303 302 302 304 305 305 307 309 310 310 311 312 312 311 312 314 314 314 315 315 314 315 315 314 314 314 313 313 312 312 312 311 312 314 314 315 314 312 313 313 313 312 312
296 297 298 299 298 296 296 298 299 300 299 300 300 300 300 300 300 301 300 299 299 299 299 298 298 299 299 299 299 299 299 299 299 299 299 299 300 300 302 303 303 304 304 304 304 304 303 303 302 302 302 302 305 307 308 310 310 311 311 312 312 313 314 314 314 314 314 315 314 314 314 314 313 313 313 312 313 313 313 314 315 313 312 313 313 313 313 313
296 297 297 297 296 296 297 299 299 300 299 299 300 300 300 300 300 300 300 300 299 299 299 299 298 299 299 299 299 299 299 299 299 299 299 299 299 300 301 302 302 303 303 303 303 303 303 303 301 301 302 302 303 304 307 309 309 308 310 311 312 312 313 314 313 313 314 314 314 315 315 314 313 314 315 313 314 314 312 313 314 312 313 313 313 313 313 313
296 295 295 296 296 297 299 299 299 300 300 300 300 300 300 300 300 300 300 300 300 299 299 299 299 299 299 299 299 299 299 299 299 299 299 299 299 300 300 300 301 302 303 303 303 303 302 303 303 302 302 302 303 305 307 309 308 308 308 309 309 310 311 312 312 312 313 314 314 315 314 314 314 316 316 314 314 313 312 312 313 312 313 313 313 313 313 313
295 295 295 296 297 298 299 299 299 299 300 300 300 300 300 300 300 300 300 300 300 299 299 299 298 298 299 299 299 299 299 299 300 300 300 300 299 299 299 299 301 301 301 302 303 303 302 303 303 301 301 300 301 304 308 308 307 306 306 306 307 308 309 310 310 310 311 313 314 315 315 314 315 316 315 314 314 313 312 312 312 312 313 313 313 313 313 313
294 295 296 297 298 298 298 299 299 299 299 299 299 299 300 300 300 300 300 300 300 300 299 299 299 299 299 299 299 299 299 300 300 300 300 300 299 299 299 300 301 301 301 302 303 303 302 302 302 301 300 300 299 301 306 306 305 304 303 303 305 305 306 307 308 309 310 311 313 314 314 315 315 314 313 315 315 314 313 312 311 312 312 312 313 313 313 312
294 295 296 296 298 299 299 299 299 299 299 298 298 298 299 300 300 300 300 300 300 300 300 300 300 300 299 299 299 299 300 300 300 300 300 299 299 299 299 299 300 300 300 301 302 303 302 302 302 302 301 301 300 301 303 304 303 303 303 303 303 303 303 304 305 306 308 310 311 312 312 313 313 312 312 314 315 314 314 313 312 311 312 312 312 312 312 312
295 295 296 296 297 298 299 299 298 297 298 297 297 297 298 298 298 299 300 300 300 300 300 300 300 300 299 300 299 299 300 300 300 300 300 299 299 299 299 299 299 299 300 300 301 302 302 301 302 302 302 302 302 302 302 303 303 303 303 303 302 302 302 303 303 304 305 307 307 309 310 311 310 310 311 312 313 313 314 313 312 311 312 312 312 312 312 312
294 295 296 296 295 296 297 297 296 296 296 296 296 297 297 297 297 298 299 300 300 300 300 300 300 300 300 299 299 300 300 300 300 300 300 300 300 300 300 300 300 300 300 300 301 302 302 301 300 301 301 301 302 302 302 303 303 303 303 302 302 302 302 303 303 303 304 305 306 307 308 308 308 309 310 311 313 313 313 312 311 311 311 311 311 312 312 313
293 294 295 295 295 295 295 295 295 295 295 295 296 296 297 297 297 298 299 299 299 300 300 300 300 300 300 300 300 300 300 300 300 300 300 300 300 300 301 301 301 301 300 301 302 302 301 301 300 300 301 301 301 301 301 301 301 301 302 303 303 303 304 304 304 304 304 305 306 306 305 305 305 307 308 309 311 311 310 310 310 309 309 310 310 311 312 312
293 294 295 294 294 294 294 294 294 294 294 295 296 296 297 297 297 298 298 299 299 299 299 299 299 300 300 300 300 300 300 300 300 300 300 300 300 300 301 301 301 301 301 301 302 302 301 301 300 301 301 301 301 301 302 302 302 302 302 303 304 304 304 304 304 305 305 305 305 305 305 304 305 306 307 308 308 309 309 309 308 309 309 309 309 310 310 311
293 294 294 293 293 293 294 294 294 294 294 294 295 296 296 296 297 298 298 298 298 298 298 299 299 299 299 299 300 300 300 300 300 300 300 300 300 300 300 300 300 300 301 301 301 301 301 301 301 301 301 301 300 301 302 302 303 303 303 303 304 305 305 305 305 305 305 305 305 305 304 304 305 306 306 306 307 308 308 308 308 309 309 309 309 309 310 310
293 293 293 293 293 293 293 293 293 293 293 294 295 295 296 296 296 297 297 297 297 298 298 297 298 298 298 298 299 300 300 300 300 300 300 300 300 300 300 300 300 300 300 300 301 301 301 301 301 301 301 301 300 300 301 302 302 301 302 302 303 303 303 304 304 305 305 305 304 304 303 303 304 305 305 305 306 307 307 307 307 308 308 309 310 310 310 310
Wind_Speed
17 17 17 17 17 17 17 17 17 18 18 18 18 18 18 19 19 19 19 20 21 22 22 22 22 23 24 26 27 28 29 30 29 26 25 23 18 17 16 13 12 11 12 11 9 9 8 8 7 6 7 8 10 12 11 12 13 8 4 4 6 6 7 6 7 7 6 7 5 10 15 10 7 13 12 7 5 6 9 10 8 8 7 6 8 15 16 14
18 17 18 18 18 18 18 18 18 18 18 19 19 19 19 19 20 20 20 19 20 21 22 22 22 22 22 24 25 26 28 28 28 28 27 22 15 13 11 9 8 7 7 7 5 4 6 8 7 6 7 10 11 12 11 13 15 9 3 5 7 6 7 9 9 9 10 6 2 7 15 10 6 14 15 8 7 9 8 10 11 11 9 9 10 13 13 13
19 19 19 19 18 18 19 19 19 18 19 19 19 19 19 20 20 20 20 20 19 20 21 22 22 21 22 22 23 24 25 26 27 25 21 16 10 9 9 7 4 5 5 6 6 7 6 8 8 8 9 11 12 12 12 11 13 11 8 5 6 7 8 13 14 15 17 7 4 5 5 5 7 10 14 9 9 11 9 9 12 14 15 14 14 15 13 13
19 20 20 20 20 19 19 19 19 19 19 19 19 19 20 20 20 20 19 20 19 19 20 21 21 21 21 20 20 20 21 22 18 13 11 10 7 8 6 3 3 6 7 7 6 6 7 8 7 9 9 10 12 13 11 11 10 10 10 6 6 9 9 14 19 17 15 5 1 8 5 1 7 7 8 10 7 8 11 15 16 16 19 19 19 18 16 14
19 19 20 20 21 21 20 20 19 19 19 19 20 20 20 20 20 20 19 19 19 19 19 20 20 20 20 19 17 15 15 12 4 5 6 8 9 7 2 3 7 8 8 8 8 6 6 6 6 9 9 8 10 11 11 15 13 7 10 11 11 12 8 13 16 8 7 4 1 6 6 4 7 11 9 8 6 5 7 13 18 20 21 22 22 21 20 17
18 18 19 20 21 21 21 21 21 20 20 20 20 20 20 20 20 20 20 20 20 20 19 19 20 19 20 18 15 12 7 5 2 5 1 7 11 7 6 10 11 10 8 7 8 8 5 5 6 9 9 7 8 9 10 16 16 8 8 12 16 16 11 14 10 2 6 4 3 5 8 9 8 11 11 9 11 9 4 4 11 12 16 24 24 22 23 21
18 18 18 19 20 20 21 21 22 21 21 20 21 21 21 20 20 20 20 20 20 20 20 20 19 19 19 18 16 12 13 18 9 3 7 8 10 14 16 17 14 11 9 7 7 7 6 7 7 10 8 6 8 10 12 15 16 11 8 9 14 17 16 18 12 3 6 7 5 8 8 7 8 9 9 12 17 17 10 4 6 4 6 20 27 23 22 21
19 18 19 19 19 20 20 21 22 22 22 22 21 21 22 22 21 21 21 20 20 20 19 19 19 19 18 18 16 13 20 24 18 15 17 15 14 17 17 16 13 11 8 5 7 7 7 8 8 9 7 7 9 10 12 12 13 12 9 9 12 16 16 17 13 6 6 7 8 10 8 7 11 11 9 14 17 19 18 10 7 4 6 15 25 24 21 20
21 19 20 21 20 20 20 20 21 22 23 23 23 22 22 22 22 21 21 21 21 20 20 20 20 19 17 17 15 15 20 17 14 14 15 15 15 15 13 11 11 10 7 4 5 6 6 6 7 8 6 8 11 10 11 9 6 7 8 11 12 16 17 15 13 11 10 10 10 9 9 11 15 13 12 19 19 15 18 15 12 10 7 11 17 19 19 20
22 21 21 22 21 21 21 20 21 21 22 23 24 24 23 22 22 22 22 22 21 20 20 19 19 20 17 16 15 14 11 6 5 8 8 12 11 10 12 10 10 10 7 4 4 5 6 7 9 9 9 9 10 9 11 9 5 5 8 11 12 15 19 16 14 16 15 13 14 12 9 13 17 13 8 15 20 16 17 17 15 14 12 11 13 14 16 18
22 23 23 23 22 23 22 20 21 21 22 23 24 24 24 24 23 22 22 22 21 21 20 19 19 20 19 19 18 16 10 3 4 5 7 10 8 8 8 8 9 7 5 5 6 6 7 8 10 9 6 5 8 10 12 12 12 12 10 11 12 12 16 17 13 14 13 10 16 15 10 13 16 14 11 14 16 18 22 22 19 16 15 14 14 15 16 17
23 23 23 23 23 23 23 21 21 21 22 22 23 24 25 25 24 22 22 22 21 20 19 19 18 19 20 22 26 25 19 14 12 11 10 11 11 11 8 6 6 3 3 7 8 7 7 8 8 8 8 6 7 7 7 10 13 14 10 8 10 10 13 16 14 14 12 8 13 12 8 13 13 14 18 19 17 19 23 25 25 21 18 18 17 16 18 18
23 23 22 23 24 23 23 22 22 22 22 22 23 24 25 25 24 23 21 21 20 20 19 18 18 19 20 24 30 29 23 18 18 18 17 15 16 16 13 10 8 5 4 7 7 7 8 8 7 10 13 11 8 6 7 8 8 9 9 6 6 7 9 14 16 17 14 11 14 10 6 10 11 17 24 23 20 21 22 22 24 25 21 21 20 19 19 19
24 23 23 23 23 23 22 21 22 23 23 23 24 24 24 25 24 22 21 20 20 20 19 17 17 18 19 26 30 28 25 21 20 21 20 18 21 22 19 16 14 11 9 9 9 8 8 9 8 10 12 12 11 11 11 7 6 5 6 5 5 5 6 9 14 17 13 14 20 13 7 10 6 14 27 29 26 25 25 23 21 23 23 22 22 21 20 20
23 23 23 23 23 23 22 21 21 22 24 25 25 24 24 24 23 21 19 19 19 19 19 17 16 16 19 26 26 21 20 20 22 24 23 21 21 21 20 17 16 14 13 14 12 10 8 8 8 8 9 11 12 10 6 4 5 4 5 5 5 6 6 7 12 16 12 12 20 14 6 8 6 11 22 29 32 30 27 26 25 23 22 22 22 22 21 21
23 23 23 22 23 22 21 21 21 21 24 26 25 24 24 23 20 18 17 17 17 16 16 16 15 13 15 18 16 13 14 16 18 19 20 22 23 22 20 18 18 16 15 15 13 11 9 7 7 8 8 8 7 6 3 4 5 5 6 5 5 7 6 6 6 14 14 9 15 15 6 3 5 11 19 23 29 32 26 24 26 25 25 25 24 23 22 22
23 24 23 23 22 21 21 21 21 22 24 25 25 25 24 20 16 15 15 14 14 14 14 16 15 14 15 16 13 13 16 17 16 17 17 17 21 23 22 21 20 18 17 16 14 12 10 7 6 6 6 5 4 4 4 6 6 5 6 6 7 7 6 5 4 9 14 10 11 15 11 7 4 4 9 13 18 24 24 23 25 25 25 26 26 25 24 25
24 24 24 23 22 21 21 21 21 22 22 24 24 24 23 17 15 17 14 11 12 13 11 10 10 9 11 13 12 13 17 15 13 15 16 15 17 19 21 23 19 16 17 16 14 14 11 9 7 4 4 5 6 6 7 7 7 6 6 5 6 8 8 6 4 7 13 12 10 12 12 12 10 6 3 6 9 12 16 19 22 22 22 24 26 27 26 27
24 24 24 24 22 21 21 21 21 21 22 23 23 23 20 18 18 13 8 11 13 10 7 8 7 7 11 17 21 22 22 20 18 16 15 15 16 17 19 22 19 17 15 10 10 13 11 7 7 6 6 8 9 10 10 9 7 7 5 4 6 7 9 8 4 5 11 10 10 12 11 10 10 10 9 10 11 10 12 14 15 16 17 20 22 25 27 27
24 25 25 24 22 22 21 21 21 20 21 22 22 21 20 22 17 7 11 19 18 13 15 19 18 20 24 27 30 28 25 25 23 23 20 15 15 17 17 20 19 16 13 8 7 11 11 6 7 9 9 10 11 13 13 11 11 11 7 4 7 6 8 8 4 5 8 7 8 10 10 9 9 9 9 14 15 12 12 13 15 17 18 19 21 22 24 25
24 25 25 24 22 21 20 21 19 19 20 19 18 18 18 18 12 10 21 23 19 17 21 28 26 28 31 29 29 27 25 23 23 28 26 20 17 13 11 15 15 10 11 12 8 7 9 7 10 13 12 12 11 11 13 13 13 13 9 5 7 6 5 5 1 3 4 2 5 7 8 10 10 9 9 13 13 11 13 14 16 20 21 21 23 23 23 23
24 25 25 24 21 19 19 19 18 18 17 13 14 14 12 13 10 14 19 18 25 26 25 30 28 30 34 32 29 25 20 17 22 29 24 18 16 9 7 11 11 8 9 11 8 7 7 9 14 14 11 11 12 11 12 13 13 11 8 6 6 5 5 4 2 5 4 1 3 4 7 8 8 9 10 11 11 13 18 19 20 22 23 24 24 24 24 24
24 25 25 23 21 19 18 18 17 14 12 11 12 11 10 13 14 16 15 14 25 28 22 24 24 27 28 26 23 18 18 14 18 28 20 10 11 10 9 8 9 11 9 9 10 9 8 9 13 12 10 12 13 12 12 11 9 8 6 6 7 6 5 5 2 4 2 1 3 4 6 7 6 7 7 10 13 14 19 23 24 25 25 26 26 24 24 25
24 25 25 22 20 18 17 17 14 9 9 11 10 9 11 15 14 16 15 9 13 19 16 13 14 18 18 18 17 14 18 16 15 23 18 11 13 9 7 8 8 9 10 12 13 12 12 11 9 10 12 14 13 13 12 8 6 7 8 7 7 6 8 6 1 1 2 2 2 3 6 7 7 9 8 9 14 15 18 22 22 25 26 25 26 26 26 27
24 24 24 22 20 18 17 15 10 6 9 10 7 10 13 15 14 14 13 6 7 10 8 6 5 7 10 13 12 12 16 16 18 22 17 13 15 10 6 8 6 5 10 14 13 12 14 15 13 11 11 12 14 13 11 9 7 7 8 9 9 9 9 6 2 2 1 3 2 2 4 7 5 10 11 9 11 14 17 17 18 23 25 24 25 27 28 28
23 23 23 22 19 18 16 11 8 9 11 9 8 12 13 14 14 13 8 3 4 4 2 5 4 4 10 14 10 9 8 10 17 24 24 20 18 11 6 6 4 5 8 8 7 6 9 14 14 13 12 11 12 12 11 10 7 7 6 7 10 10 11 9 3 2 2 3 1 2 2 6 4 6 8 8 10 13 13 13 17 24 25 26 28 29 29 30
22 23 22 22 20 18 14 9 10 11 9 8 10 13 13 13 13 11 6 3 3 3 2 4 5 6 10 12 10 3 2 14 20 16 21 23 20 14 9 6 5 6 5 3 4 3 5 10 12 13 13 10 9 9 10 10 7 6 4 5 8 9 12 11 4 3 2 2 2 1 1 5 7 6 7 8 9 11 9 9 13 20 25 27 29 30 31 33
21 22 22 21 20 17 13 12 13 10 7 10 12 12 12 12 11 8 3 2 2 3 3 3 5 8 10 10 7 3 6 16 14 9 14 14 17 15 10 9 9 9 6 4 5 4 5 8 9 11 12 10 9 9 7 9 8 5 2 2 6 5 7 7 4 2 2 2 4 4 3 4 9 6 6 9 12 11 12 10 8 13 22 26 27 29 32 34
20 21 21 20 19 16 13 12 12 10 8 10 11 11 10 9 8 4 1 3 3 3 2 4 5 7 10 8 3 5 6 5 1 11 23 13 15 16 11 10 7 9 11 7 7 8 6 3 1 3 6 8 10 11 9 8 8 7 4 1 2 2 1 2 3 2 2 4 8 9 8 6 10 6 5 8 10 11 12 10 6 10 19 24 27 30 31 30
19 20 21 20 19 16 14 12 11 11 9 9 9 9 9 7 4 2 2 2 2 2 2 5 6 7 8 8 5 3 3 3 3 11 17 11 11 14 13 12 6 5 9 8 9 11 11 10 5 1 5 6 6 9 12 11 8 4 4 4 1 2 2 1 2 2 3 6 10 13 13 9 9 7 6 6 7 9 9 9 8 10 18 24 27 29 28 26
18 19 20 21 18 15 14 13 11 10 8 7 8 8 7 4 1 1 2 1 2 3 1 4 7 7 8 9 8 2 1 4 4 5 8 7 5 5 7 9 6 3 6 6 8 11 12 12 7 4 8 5 7 6 9 10 7 2 4 4 3 2 2 1 3 4 5 9 10 13 13 11 11 8 5 5 8 9 9 10 11 9 14 23 27 27 27 26
18 18 19 19 17 15 14 13 12 10 8 7 6 6 4 3 1 3 2 3 3 2 2 6 9 9 9 11 8 3 2 2 2 1 3 3 3 3 4 5 5 4 5 5 7 8 9 9 7 7 9 7 1 3 5 6 4 3 4 5 5 4 4 3 5 6 7 10 8 8 10 10 12 13 9 9 10 8 7 8 11 10 13 22 25 26 27 27
19 20 19 18 17 16 14 13 12 10 9 7 3 2 2 2 2 2 2 3 2 2 5 8 10 10 11 11 6 2 1 1 0 0 2 1 2 4 5 7 7 5 4 3 5 5 5 7 10 9 6 10 8 3 4 5 4 6 7 6 7 6 5 5 5 5 6 8 7 7 9 7 8 10 13 16 15 13 12 7 7 9 12 21 24 24 25 26
20 21 20 18 17 15 11 11 10 8 7 4 1 0 2 3 2 2 3 4 3 6 7 7 11 13 11 7 3 2 1 2 1 2 4 2 2 4 3 5 8 7 5 3 4 4 5 6 7 9 7 11 13 10 8 4 3 7 7 6 8 6 5 6 5 6 6 6 7 8 7 6 6 4 6 13 18 22 25 18 12 13 14 16 19 20 20 22
20 20 18 17 16 13 10 9 9 8 7 3 2 2 3 2 3 2 3 4 3 6 7 8 11 11 8 4 2 3 2 1 2 2 3 2 3 5 5 3 3 5 5 4 3 3 6 6 4 9 12 13 13 13 12 6 2 5 5 6 8 8 7 6 6 6 4 4 5 6 5 4 4 5 3 4 6 14 25 24 20 19 20 19 19 20 20 20
21 19 16 15 14 12 9 7 7 8 9 7 2 3 4 3 4 3 3 5 4 6 8 9 7 6 5 4 2 3 3 0 3 3 2 2 3 4 3 3 3 2 3 4 4 2 5 6 4 7 10 11 13 13 13 10 4 2 4 7 9 8 6 5 7 5 4 6 4 5 5 4 4 8 6 6 3 2 10 17 18 20 23 23 24 25 23 20
20 18 17 14 11 7 6 6 5 8 11 8 3 4 3 4 6 6 6 7 7 7 7 6 3 3 5 4 3 4 4 1 4 3 3 4 3 2 1 0 1 2 2 2 2 3 4 7 7 7 7 9 12 12 12 15 12 5 4 8 8 3 0 1 5 5 5 8 5 6 8 5 4 6 6 10 9 5 6 9 12 18 22 23 24 26 24 23
18 16 15 10 7 7 7 8 5 8 10 5 5 7 4 3 6 9 9 9 7 6 5 3 1 1 4 4 4 6 5 4 4 4 5 5 1 2 1 1 3 3 4 5 0 2 4 6 9 8 9 10 8 6 7 12 16 9 2 4 5 2 2 2 3 4 6 7 5 8 11 7 7 5 4 9 12 10 9 8 9 12 15 18 22 25 26 28
15 13 10 7 7 9 10 10 5 7 8 3 5 6 2 2 4 8 10 9 6 5 3 3 3 2 4 6 6 6 6 5 5 5 4 2 1 2 3 3 1 3 6 6 1 1 3 2 5 5 5 4 2 1 3 7 9 5 4 0 3 2 2 4 3 3 5 7 6 8 8 6 7 7 6 7 9 9 9 9 10 10 12 17 21 24 27 29
12 9 7 7 9 11 15 13 3 7 5 3 6 5 3 3 5 8 10 7 5 4 3 3 3 3 3 5 7 6 5 6 6 5 4 3 5 7 5 2 1 0 4 5 2 1 2 1 4 6 9 7 3 1 3 7 7 3 2 5 5 3 2 3 3 4 4 5 6 7 7 5 4 5 8 10 10 9 9 10 10 11 15 20 23 26 29 29
11 6 4 7 12 16 16 9 3 5 3 4 6 5 5 6 7 9 11 9 7 6 5 5 5 5 4 5 6 5 5 5 5 5 4 4 4 4 3 4 3 3 1 1 1 2 2 1 3 5 5 4 7 7 7 7 6 4 4 6 6 6 5 5 5 5 3 4 5 6 7 5 2 4 6 8 8 8 9 10 9 12 20 24 25 27 26 23
8 5 6 10 16 18 12 3 4 5 3 5 6 5 5 6 5 8 10 8 7 6 4 4 6 6 4 5 5 5 4 4 5 4 4 5 5 5 6 10 10 6 3 4 3 1 1 1 1 4 4 6 11 14 11 5 2 3 3 3 4 4 6 8 8 7 6 6 5 6 8 5 3 4 4 3 3 4 5 6 6 13 19 21 21 21 19 17
7 11 12 11 13 12 5 2 5 4 4 7 8 7 7 5 2 4 6 4 3 2 2 3 4 5 5 4 3 4 4 4 5 6 6 6 5 8 14 17 14 7 2 3 3 1 2 0 2 4 4 6 10 11 6 0 2 2 2 2 3 4 6 8 7 5 4 5 5 6 8 6 4 6 7 6 6 7 10 11 3 10 14 15 16 16 15 15
11 17 14 8 7 6 2 2 4 3 4 5 5 6 7 5 5 6 5 3 3 2 2 3 4 6 6 4 4 4 4 4 5 6 6 5 5 11 18 18 14 7 3 4 3 1 0 2 2 5 5 5 6 4 1 3 2 2 3 4 5 6 8 8 6 5 3 5 8 9 8 4 3 6 7 9 9 6 7 10 6 2 6 9 12 12 13 14
12 11 8 6 8 7 3 4 4 4 5 6 5 6 6 4 6 9 9 8 9 8 4 4 6 7 6 4 5 5 5 6 5 4 5 5 6 10 14 13 12 7 7 10 8 4 2 2 0 3 5 4 5 3 2 2 3 3 5 8 8 8 8 7 5 6 5 5 9 10 7 5 7 10 10 8 8 6 7 8 6 4 5 5 6 7 9 11
8 5 5 6 8 8 8 7 5 4 4 5 5 4 4 3 4 8 9 9 12 13 10 8 7 7 6 6 6 7 8 9 7 5 6 6 5 6 10 15 16 14 17 18 11 2 1 3 4 6 7 6 7 8 5 4 4 6 10 11 11 9 9 7 5 6 7 7 9 9 7 8 12 14 11 8 8 8 7 6 6 7 9 11 11 12 13 13
4 2 3 3 3 5 7 3 4 4 5 7 5 3 5 6 6 8 6 7 9 9 8 8 8 6 6 6 6 7 7 8 9 9 10 10 8 9 16 20 18 19 22 18 8 2 1 5 7 9 12 11 11 12 11 7 7 10 12 12 12 12 10 8 6 8 8 8 9 9 8 10 14 15 12 9 9 9 7 8 12 13 14 16 17 17 19 19
4 4 5 3 1 3 3 2 9 10 9 9 5 4 8 9 8 7 4 6 8 7 4 5 7 9 10 9 8 7 7 7 8 9 9 10 8 8 12 12 12 18 19 9 4 4 2 6 8 8 11 13 11 12 12 9 10 12 12 12 14 13 11 9 10 11 9 8 8 11 12 12 13 15 13 9 7 7 8 14 22 22 21 22 22 17 15 17
7 8 9 5 3 6 9 11 13 11 8 7 6 5 8 9 9 9 7 4 4 5 5 6 7 8 11 12 10 8 8 7 7 7 6 8 8 7 7 6 8 13 10 2 2 3 2 6 8 6 9 13 12 12 13 12 12 13 14 14 14 13 13 11 11 12 12 12 11 13 16 15 12 14 16 14 12 13 16 21 27 28 25 26 26 21 15 14
8 7 7 7 8 11 12 12 11 8 7 7 6 5 7 9 10 9 7 5 5 4 5 8 11 10 10 11 11 11 11 9 10 11 9 8 8 6 5 4 3 4 2 1 1 3 4 5 5 3 6 11 12 11 11 12 12 13 14 12 11 12 13 12 12 12 12 12 11 12 14 13 10 12 17 19 19 18 17 18 22 26 26 27 29 28 24 22
9 10 10 9 8 8 8 9 7 6 6 5 5 6 7 8 10 9 8 9 12 10 7 9 11 10 9 11 12 14 15 14 15 17 15 14 14 10 6 4 4 4 4 3 2 3 4 4 4 2 5 9 10 9 10 10 10 12 13 12 13 13 12 10 10 9 10 11 10 10 10 9 8 10 13 16 16 12 11 13 17 21 23 22 22 24 26 27
9 10 10 8 7 6 6 7 6 6 6 5 7 8 8 9 12 12 10 9 12 14 13 14 14 11 9 11 12 15 18 20 22 24 24 23 22 19 16 16 15 11 7 4 3 4 4 3 4 4 5 9 10 6 5 6 6 7 11 14 15 14 12 11 9 10 12 11 8 8 8 8 10 10 11 12 11 9 10 14 18 20 23 24 23 24 28 31
Wind_Direction
6 2 359 356 354 352 350 348 344 342 340 337 334 329 325 321 319 316 312 310 310 310 309 308 306 306 307 306 306 306 305 303 302 303 298 297 299 294 292 292 295 305 304 297 295 298 306 312 309 295 269 257 244 239 229 212 203 199 207 227 225 227 226 224 238 250 263 258 218 173 174 193 188 169 187 204 199 189 184 188 170 159 181 188 163 169 177 177
7 5 0 356 353 350 349 347 345 342 339 338 336 333 329 324 321 317 315 312 309 308 308 308 307 308 308 306 308 310 310 308 304 302 298 298 297 281 268 265 292 320 316 302 277 266 297 298 298 302 276 260 246 229 222 205 197 200 194 221 227 228 236 237 244 253 258 271 293 196 181 206 211 166 182 196 195 205 192 191 180 157 168 189 185 184 184 183
7 5 3 360 356 351 348 345 343 341 339 337 335 334 331 328 325 320 317 314 312 310 308 308 308 309 308 307 311 314 315 314 308 300 293 292 278 248 240 246 296 347 345 326 279 237 239 266 279 295 283 265 249 227 217 200 196 206 210 226 229 227 245 250 253 257 258 272 348 284 191 204 246 178 170 185 199 202 203 200 186 175 181 194 197 196 193 188
5 4 2 -0 357 353 349 345 342 340 338 336 333 332 331 330 327 323 319 315 313 312 310 310 308 308 309 310 313 318 323 321 309 283 264 263 236 213 219 241 351 359 355 347 309 257 235 247 262 276 276 270 253 235 222 205 201 204 212 230 230 229 243 246 251 264 273 287 340 296 321 214 265 261 180 186 209 202 210 210 205 200 194 199 207 204 199 196
1 0 359 357 355 353 350 346 343 340 338 336 333 331 329 329 327 324 320 316 314 312 312 310 309 308 307 311 314 321 330 327 298 213 228 219 203 198 190 353 1 350 349 354 329 304 267 254 260 265 259 260 256 245 229 216 220 227 225 233 236 240 250 242 243 279 324 4 326 284 300 259 256 270 239 206 219 211 218 216 214 216 205 201 210 211 204 205
356 355 354 353 352 351 349 346 343 340 339 337 334 331 328 327 325 324 320 317 315 312 312 310 311 309 307 311 310 312 305 268 141 112 205 207 210 239 299 317 334 334 330 345 328 318 305 275 253 248 241 246 252 248 238 223 224 243 247 239 239 241 250 255 247 315 322 320 284 268 280 270 257 256 239 225 237 232 248 225 203 210 213 206 207 210 205 207
350 350 349 348 347 347 346 344 341 339 338 336 334 331 329 326 324 323 319 316 314 313 312 310 311 309 309 308 304 297 256 245 244 249 290 289 267 279 295 301 319 332 326 337 323 309 302 289 257 244 243 242 245 248 250 238 229 236 246 243 250 249 246 255 252 215 272 291 276 270 286 279 257 253 230 225 238 239 249 266 209 180 194 200 198 202 203 205
345 345 346 345 342 341 341 342 339 336 335 334 333 331 328 326 323 321 320 316 313 312 313 311 310 308 310 308 308 294 262 255 261 270 278 293 294 287 293 303 316 327 322 317 305 300 293 284 260 250 252 248 254 258 259 253 241 240 246 246 265 272 260 258 263 236 231 256 264 266 273 263 251 258 254 239 239 237 238 254 256 210 144 179 190 196 199 202
346 342 342 344 341 338 336 337 337 334 332 331 331 330 327 324 322 321 319 317 314 311 311 311 307 306 305 303 303 286 274 272 268 274 276 276 280 276 282 304 311 308 300 277 283 296 288 278 268 268 284 278 277 284 276 265 240 238 254 254 258 268 267 262 263 260 245 238 248 255 249 248 248 254 261 249 245 240 235 242 254 242 198 180 191 197 197 201
347 342 339 340 339 338 334 332 333 332 331 329 328 327 325 323 322 321 319 317 316 312 310 310 307 305 300 296 292 272 282 327 281 276 282 273 277 276 274 279 286 295 292 263 259 277 277 283 295 301 310 294 279 282 276 267 259 274 286 275 263 264 267 259 246 246 246 237 233 238 242 242 239 239 245 240 237 236 240 247 243 237 230 207 199 204 203 206
346 343 340 338 336 337 334 331 330 330 329 328 327 324 323 323 323 320 319 318 316 314 311 308 307 303 296 288 276 256 252 285 269 276 289 285 291 291 278 262 267 280 286 268 254 266 277 286 301 301 297 286 272 271 270 267 269 278 295 295 278 274 274 266 254 240 238 236 229 230 248 246 235 232 230 228 228 226 232 244 242 228 226 225 214 208 208 210
346 343 340 337 335 335 334 331 329 328 327 326 325 322 323 324 322 319 319 317 315 314 311 308 306 300 295 282 266 259 259 258 259 263 261 267 281 285 277 268 271 254 266 275 261 266 272 275 292 276 264 294 288 267 274 270 269 272 277 286 273 270 265 253 247 236 228 229 222 219 252 246 228 231 233 229 227 227 228 232 236 231 222 227 224 212 212 210
345 342 339 337 335 335 333 331 329 327 326 325 323 322 323 322 319 319 318 316 314 313 311 308 302 295 291 277 268 268 269 267 268 270 262 256 265 271 271 273 277 263 272 275 263 266 260 257 275 267 268 285 278 277 307 288 270 270 260 262 268 268 255 236 229 226 223 224 210 195 239 240 219 224 229 227 222 227 237 234 231 230 223 221 221 215 214 212
345 342 340 337 335 335 334 332 330 327 325 324 324 324 322 320 319 320 318 315 313 311 310 306 298 294 282 273 279 281 275 269 263 263 266 265 264 265 266 267 265 266 274 273 269 271 263 260 265 267 269 265 264 294 313 281 250 258 249 240 237 252 255 226 213 209 211 216 205 195 244 246 218 218 220 220 216 217 229 233 229 229 225 220 217 215 214 214
345 342 338 335 335 335 334 334 331 327 325 324 326 326 322 321 322 320 316 313 311 309 307 302 294 289 278 277 287 288 279 274 267 263 262 259 260 261 261 261 259 262 267 266 268 269 268 268 253 255 267 254 254 280 300 262 236 223 237 235 212 230 260 249 215 197 197 204 196 195 246 244 234 233 222 216 212 211 218 222 222 223 224 223 220 217 215 216
345 342 337 335 334 335 334 334 332 327 326 326 327 327 325 326 325 320 319 315 309 306 300 295 294 285 277 285 292 282 276 277 276 276 267 255 252 254 255 255 254 253 256 257 257 258 257 255 239 240 261 254 234 239 262 263 239 209 222 236 218 218 238 258 220 184 186 193 190 200 228 224 220 232 230 223 210 207 213 219 220 220 220 223 224 221 217 219
344 342 339 335 333 334 334 333 332 329 328 328 327 329 330 332 331 328 329 318 308 312 302 288 290 284 271 275 285 290 293 290 283 277 269 258 253 254 253 251 252 251 256 260 257 251 239 226 225 232 244 246 225 210 224 237 230 217 219 234 243 240 236 222 189 171 184 197 197 206 224 238 260 243 225 231 213 204 209 215 221 223 221 222 226 226 221 220
343 342 339 335 332 332 332 334 332 331 332 329 328 332 337 341 338 329 325 326 325 326 316 291 286 285 276 272 277 299 306 303 297 279 265 257 253 255 252 248 249 248 251 259 255 241 228 213 210 222 218 212 220 211 210 221 217 216 216 228 240 243 255 233 187 169 185 204 213 211 224 233 252 282 260 233 217 213 217 213 217 223 224 225 228 230 227 224
342 342 340 335 332 330 331 334 330 333 336 331 332 341 347 345 341 333 328 339 335 321 302 291 279 260 277 286 287 296 301 298 300 296 284 272 263 260 249 242 243 242 240 245 236 220 213 215 209 214 222 210 211 213 219 231 234 243 243 249 246 229 242 241 200 172 186 204 223 222 234 233 231 244 247 238 221 222 236 231 228 230 232 234 233 231 231 230
342 341 339 334 331 329 330 331 330 337 339 335 342 352 354 350 350 343 324 322 312 297 280 279 275 264 270 280 284 289 293 292 291 288 288 290 285 277 256 234 231 236 233 231 227 201 190 211 222 212 219 216 216 220 228 243 255 271 279 277 274 253 234 234 204 180 187 200 224 226 242 251 243 238 236 236 226 214 222 230 235 235 236 239 238 235 232 232
341 340 339 335 330 327 328 330 332 336 339 343 351 354 355 358 359 328 323 316 301 296 283 278 274 267 269 273 276 282 286 290 287 279 280 286 290 290 256 222 218 229 225 226 243 220 196 212 227 219 220 223 228 230 230 239 248 260 271 279 285 275 255 260 148 151 170 191 240 235 244 249 246 247 242 237 232 224 220 217 221 225 228 232 234 234 233 233
340 340 339 336 330 325 325 329 334 339 345 356 355 348 348 350 337 319 324 310 297 299 289 286 278 268 273 274 274 276 274 280 281 277 278 281 280 270 236 219 215 221 218 220 234 242 230 233 233 228 226 224 230 240 237 236 238 245 258 264 269 272 280 286 144 145 153 180 258 253 256 254 247 244 238 233 233 232 231 227 224 221 219 222 226 227 229 232
340 340 340 338 332 325 324 327 338 348 351 358 350 339 331 327 325 324 323 299 297 302 297 293 281 272 279 281 280 268 248 250 270 275 273 260 259 255 251 243 227 227 216 207 214 222 231 236 236 234 240 237 228 233 242 244 239 235 241 247 250 252 265 271 190 154 161 232 288 316 290 273 268 268 256 243 246 243 238 236 233 228 222 220 220 222 226 228
339 340 341 340 333 325 323 328 342 356 344 347 345 325 320 325 331 331 321 288 283 301 308 309 290 278 284 290 289 259 240 240 250 269 271 241 236 245 252 251 250 244 224 214 215 222 235 242 241 227 228 240 238 230 231 240 242 230 230 241 252 249 251 259 208 94 347 317 320 338 297 274 238 243 253 249 253 251 242 239 236 232 228 223 220 223 228 231
338 340 341 341 334 325 325 331 340 337 330 339 327 313 325 330 335 334 321 288 263 291 313 346 334 289 309 322 299 255 249 253 247 258 266 242 229 227 241 246 243 246 235 227 221 224 237 241 249 249 230 226 235 235 225 224 239 237 225 231 247 262 267 261 178 137 302 276 220 150 266 275 224 221 232 228 236 240 232 230 230 228 224 220 219 223 228 231
337 339 341 340 336 327 327 333 324 315 331 335 313 319 332 334 335 334 323 281 268 291 318 349 6 338 345 359 330 270 248 273 276 265 256 246 235 226 240 246 224 245 247 238 234 236 238 231 233 250 253 237 231 233 226 220 237 241 220 225 237 243 254 259 238 184 219 259 241 128 231 271 264 238 241 230 231 238 226 214 219 221 217 214 216 222 225 227
333 338 341 340 339 331 323 317 305 313 332 319 310 325 333 336 336 332 322 250 272 339 2 345 4 351 343 357 350 300 247 327 324 286 251 244 238 229 232 237 232 249 248 233 245 231 225 228 222 230 244 250 242 234 222 214 229 236 211 251 255 233 231 238 230 211 238 322 334 83 107 279 272 248 250 263 260 260 246 219 214 213 212 211 214 220 224 229
330 336 340 339 339 333 317 303 300 305 312 301 311 327 330 335 335 333 328 268 316 10 4 350 7 2 356 356 353 217 269 328 338 316 299 268 233 224 227 238 244 251 243 221 246 248 232 229 223 227 232 235 237 243 227 203 218 228 155 281 279 254 224 208 191 221 272 305 264 229 169 263 270 234 213 250 256 263 262 246 220 201 204 208 211 220 228 234
328 333 339 337 337 336 322 305 298 293 292 300 314 324 332 337 326 318 267 278 353 23 345 1 8 356 356 353 329 222 257 320 219 310 329 311 239 232 236 246 261 273 262 236 240 261 266 262 239 239 244 237 230 236 234 207 215 225 180 162 316 336 12 149 172 203 211 233 241 227 194 221 266 245 185 224 232 239 252 251 226 189 193 201 207 217 226 233
326 331 337 336 334 336 326 311 302 294 293 301 313 328 338 335 314 296 255 261 16 0 326 18 3 328 328 331 318 238 242 274 265 315 333 323 261 251 255 259 263 291 278 253 245 255 263 278 303 283 247 277 275 241 231 220 215 210 175 178 117 71 71 86 167 169 205 235 236 226 207 210 260 251 193 218 229 219 228 236 227 199 195 202 208 215 224 231
325 329 334 335 332 328 320 309 300 295 295 302 322 341 333 310 282 276 275 305 351 312 317 11 345 325 327 331 320 304 248 283 309 341 335 329 296 249 259 263 237 244 282 270 259 257 254 260 270 229 218 263 328 283 244 237 224 173 142 175 194 183 171 188 200 189 219 237 231 224 213 212 245 249 196 226 244 223 219 224 226 213 200 204 207 213 224 232
322 324 329 335 332 324 317 307 298 291 286 297 329 345 320 288 239 224 267 342 327 313 23 346 335 335 328 322 311 316 2 281 274 330 304 330 321 261 246 239 218 227 251 247 255 256 248 240 228 225 212 192 238 297 254 248 224 187 183 184 194 204 193 190 200 201 223 240 235 215 205 210 241 252 242 244 249 242 235 215 215 222 199 193 199 210 222 230
320 322 324 329 330 326 316 301 293 283 279 293 331 345 302 276 272 217 251 315 300 331 346 328 330 335 319 310 311 338 350 258 135 300 270 273 294 282 245 240 247 252 247 241 255 255 258 241 212 212 213 186 183 209 229 227 210 200 197 192 197 201 212 215 210 214 230 245 240 206 206 217 239 246 233 231 236 246 260 248 221 232 197 183 195 209 217 223
320 323 323 325 330 330 320 298 284 273 274 289 61 261 251 236 271 320 273 263 277 308 322 334 334 325 310 308 340 30 273 258 43 335 302 306 299 313 294 252 245 247 263 273 260 244 253 255 204 190 186 180 190 206 213 215 226 214 201 203 211 204 215 221 214 221 231 246 225 197 208 213 211 228 215 221 224 225 235 235 224 234 221 200 203 210 219 225
322 324 323 327 332 331 325 303 275 259 250 210 153 231 228 236 273 275 264 267 285 300 321 344 330 311 309 324 353 38 35 345 3 334 312 336 315 313 312 295 255 242 250 250 250 237 241 261 239 204 192 180 194 209 207 200 253 236 212 214 220 212 221 237 235 223 226 261 218 185 219 229 241 291 291 250 231 210 221 222 214 224 230 229 232 233 239 241
324 325 326 332 328 317 319 310 279 254 227 194 188 242 221 237 253 246 294 310 319 327 333 334 320 297 317 335 312 24 58 329 307 318 300 282 273 278 290 331 346 286 268 262 267 276 247 258 271 232 208 193 200 203 195 191 197 231 211 218 226 220 220 244 253 245 244 263 235 188 235 247 276 287 264 253 297 164 216 219 213 221 224 227 235 239 241 238
332 332 333 338 329 317 335 340 306 243 210 186 209 249 226 228 227 233 280 300 309 328 330 325 338 323 312 313 307 345 16 306 301 321 322 309 272 227 242 306 168 225 347 0 290 307 302 279 276 267 253 241 236 227 206 196 197 202 206 213 224 237 215 213 246 246 237 249 239 221 240 226 214 251 228 224 231 206 209 214 212 219 217 217 225 230 234 237
339 336 332 333 323 326 344 352 328 226 202 187 247 249 236 220 216 228 258 284 296 309 317 303 307 317 304 308 314 330 335 322 332 335 313 303 261 137 106 232 163 147 93 88 117 343 11 309 283 269 255 258 269 271 240 214 213 221 229 193 192 214 229 196 221 233 227 240 241 232 241 231 217 233 213 215 222 215 208 207 212 215 208 209 218 226 233 239
345 336 326 313 313 330 338 341 325 214 202 211 250 248 244 242 240 248 265 282 282 280 291 261 238 274 305 303 302 314 320 310 321 329 309 301 335 337 313 292 152 127 127 124 142 352 46 333 286 298 300 298 353 64 252 244 237 262 344 257 175 182 222 211 223 238 231 240 243 232 233 226 224 241 248 239 234 223 205 197 209 215 208 208 215 225 233 238
344 330 309 301 312 326 329 330 300 199 210 247 251 266 308 293 276 268 268 270 266 271 266 236 248 285 289 291 294 301 308 306 309 307 296 313 312 304 312 330 346 195 161 150 131 110 109 221 270 320 349 343 312 211 228 245 240 247 273 234 210 190 222 248 247 242 243 245 243 240 237 229 213 223 239 248 248 237 216 202 203 204 205 209 216 225 232 235
343 321 286 306 314 316 321 322 227 207 241 252 247 262 288 300 296 286 278 266 252 257 262 264 271 275 281 290 294 301 304 302 304 289 276 293 292 290 0 22 329 308 255 188 191 171 173 190 257 301 335 308 279 281 276 267 256 241 230 230 229 217 224 250 246 232 234 236 241 252 253 249 222 215 227 237 242 240 227 215 205 199 203 209 217 225 231 234
339 287 277 304 306 308 316 306 226 238 241 245 255 264 290 306 300 293 291 277 258 255 255 263 261 257 268 269 269 291 297 286 290 280 264 271 270 274 308 320 312 304 300 286 271 191 127 115 226 262 261 257 271 276 273 271 277 272 249 240 259 242 225 237 243 241 238 230 232 253 258 249 253 272 283 296 309 323 299 266 211 189 194 202 213 222 229 234
322 294 300 306 295 294 301 267 259 248 236 258 267 275 292 296 270 286 291 263 245 255 229 237 248 242 246 252 260 284 290 274 257 247 256 270 270 279 294 307 313 303 268 275 267 124 84 222 258 278 267 257 263 265 265 41 73 313 306 290 274 265 250 249 258 273 265 239 233 249 252 241 248 282 297 311 327 347 337 321 279 175 185 200 212 219 222 227
309 300 306 310 291 284 263 259 282 277 279 287 287 287 282 253 233 259 263 215 198 207 217 232 230 225 229 249 267 271 281 276 245 238 259 269 266 281 290 302 312 303 293 322 339 76 204 274 316 316 312 308 298 294 355 32 38 0 333 316 297 290 284 275 273 283 272 235 236 248 251 246 278 300 296 293 301 315 314 314 327 152 189 201 202 206 215 225
312 302 306 295 269 261 252 266 285 288 300 312 307 294 280 250 241 247 247 249 242 230 229 240 232 233 241 252 257 257 253 250 252 266 272 267 274 283 286 300 316 312 304 320 344 21 294 276 323 281 282 294 295 298 350 3 357 335 310 306 312 315 307 295 282 274 266 238 240 248 258 284 296 297 300 309 316 304 272 272 289 294 276 249 210 211 230 244
317 303 318 300 258 243 245 258 275 270 295 325 322 306 295 284 283 270 259 259 251 239 238 249 255 262 260 251 255 259 247 238 241 258 267 271 283 283 281 291 299 292 285 293 308 356 274 248 218 233 244 244 250 261 283 316 308 288 286 291 298 300 297 302 301 283 285 283 262 250 252 273 278 278 284 305 314 303 290 287 298 297 289 283 270 263 267 268
293 273 335 333 279 256 240 239 358 338 321 333 331 313 305 298 308 304 265 240 253 260 253 245 244 249 248 250 257 257 251 242 238 248 262 268 267 270 276 280 282 281 279 279 267 200 233 257 233 228 239 243 247 257 269 275 263 262 270 276 280 281 283 287 278 277 295 300 279 270 263 260 265 268 266 267 280 292 314 324 319 320 322 315 303 286 271 261
269 304 326 314 272 287 264 334 352 334 321 324 309 283 294 291 296 304 268 240 260 272 266 240 232 235 241 249 258 265 268 261 249 247 254 262 265 274 277 268 258 266 272 267 212 183 228 260 245 235 249 254 252 257 262 259 251 252 254 256 262 266 266 265 261 264 272 270 274 293 292 276 276 284 278 263 257 268 282 289 293 302 314 318 315 305 276 255
285 297 303 296 293 314 311 314 319 314 305 304 286 268 282 284 283 286 281 277 268 244 234 243 247 245 243 243 247 256 264 265 262 254 252 267 275 281 287 272 250 258 265 243 188 180 173 262 256 243 259 262 256 255 257 255 254 255 252 248 250 255 255 252 254 256 255 255 262 276 279 276 277 283 284 282 279 278 277 277 281 287 293 295 295 296 292 281
291 293 305 318 311 300 295 295 300 296 283 278 271 269 279 281 284 286 283 293 305 286 246 254 266 270 266 262 258 256 255 257 261 261 265 277 278 275 281 286 278 285 306 37 255 185 183 261 283 275 269 268 260 256 256 253 252 255 257 254 249 252 252 248 247 248 250 255 257 258 265 271 264 261 272 278 279 279 276 271 271 274 274 271 269 272 277 281
280 286 298 306 298 284 280 279 279 282 281 270 265 278 283 279 289 305 311 297 287 278 270 283 294 296 290 283 276 270 269 267 265 267 269 268 270 276 278 268 283 302 286 259 249 193 198 264 308 291 270 270 264 259 259 258 255 257 261 256 245 242 243 240 237 235 237 243 248 250 255 263 260 256 265 270 268 267 267 266 268 273 274 268 263 264 269 272
284 289 289 289 286 278 280 282 273 269 274 271 273 283 288 295 311 321 317 294 279 281 299 315 317 316 305 293 288 287 287 282 279 279 276 269 268 271 269 260 258 260 257 248 238 214 208 261 274 252 261 270 265 259 272 282 275 257 249 243 239 239 244 249 245 237 235 235 241 248 246 251 260 265 269 273 271 260 256 262 266 270 272 271 268 266 265 266